"Pseudo-MPEC" for CEJLTR2

Created 2026 Apr 17 11:35:13 UT using Find_Orb

Click here for an explanation of pseudo-MPECs

 
 Astrometry: 
     CEJLTR2*1C2026 04 17.28566713 34 32.074+31 20 54.56   ~4H7Z 18.62GVNEOCPG96
     CEJLTR2 1C2026 04 17.29089113 34 40.552+31 20 28.64   ~4H7Z 18.71GVNEOCPG96
     CEJLTR2 1C2026 04 17.29722413 34 50.862+31 19 56.60   ~4H7Z       VNEOCPG96
     CEJLTR2 1C2026 04 17.33980013 36 01.638+31 16 04.40   ~4H8Z 18.42GVNEOCPI52
     CEJLTR2 1C2026 04 17.33997013 36 01.912+31 16 03.50   ~4H8Z 18.70GVNEOCPI52
     CEJLTR2 1C2026 04 17.34014013 36 02.203+31 16 02.57   ~4H8Z 18.70GVNEOCPI52
     CEJLTR2 1C2026 04 17.34030913 36 02.502+31 16 01.52   ~4H8Z 18.94GVNEOCPI52
     CEJLTR2 1C2026 04 17.44513713 39 11.830+31 04 22.91   ~4HB5 18.44GVNEOCPI52
     CEJLTR2 1C2026 04 17.44530813 39 12.157+31 04 21.58   ~4HB5 18.50GVNEOCPI52
     CEJLTR2 1C2026 04 17.44547813 39 12.481+31 04 20.32   ~4HB5 18.59GVNEOCPI52
     CEJLTR2 1C2026 04 17.44564713 39 12.812+31 04 19.06   ~4HB5 18.60GVNEOCPI52

Station data:
(G96) Mt. Lemmon Survey  (N32.442729 W110.788720)  US/Arizona.  Observer E.
   J. Christensen. Measurers T. Beuden, V. F. Carvajal, D. Fay, J. B.
   Fazekas, D. C. Fuls, A. R. Gibbs, A. D. Grauer, H. Gröller, J. K. Hogan,
   R. A. Kowalski, S. M. Larson, G. J. Leonard, D. Rankin, R. L. Seaman, F.
   C. Shelly, K. W. Wierzchoś. 1.5-m reflector + 10K CCD.
(I52) Steward Observatory, Mt. Lemmon Station  (N32.442570 W110.788920)
   US/Arizona. Measurers T. Beuden, V. F. Carvajal, D. Fay, J. B. Fazekas, D.
   C. Fuls, A. R. Gibbs, A. D. Grauer, H. Gröller, J. K. Hogan, R. A.
   Kowalski, S. M. Larson, G. J. Leonard, D. Rankin, R. L. Seaman, F. C.
   Shelly, K. W. Wierzchoś. 1.0-m prime focus + CCD.

Orbital elements:  CEJLTR2
   Perihelion 2026 May 12.752997 +/- 0.0403 TT = 18:04:18.9 (JD 2461173.252997)
Epoch 2026 Apr 17.0 TT = JDT 2461147.5   Earth MOID: 0.0001      AutoNEOCP
M 352.248644635 +/- 0.31            (J2000 ecliptic)
n   0.300988472 +/- 0.0122          Peri.  208.999367 +/- 0.18
a   2.205139864 +/- 0.0596          Node    29.829592 +/- 0.025
e   0.56517878 +/- 0.0123           Incl.    9.547254 +/- 0.18
P   3.27457                H 26.44  G  0.15   U  9.8
q 0.958841599 +/- 0.00118    Q 3.451438130 +/- 0.12
From 11 observations 2026 Apr. 17 (3.8 hr); mean residual 0".05
Residuals in arcseconds: 
260417 G96  .04-  .02-    260417 I52  .11-  .01+    260417 I52  .01+  .02-    
260417 G96  .04+  .01+    260417 I52  .07-  .06+    260417 I52  .06-  .01-    
260417 G96  .00   .02+    260417 I52  .09+  .01-    260417 I52  .01-  .00     
260417 I52  .08+  .08-    260417 I52  .06+  .03+    

Ephemerides (geocentric):
Date (UTC) HH   RA             Dec           delta  r     elong  mag " sig PA
---- --------  ------------   ------------  ------ ------ -----  --- --------
2026 04 17 12  13 41 41.613   +31 00 22.06  .01383 1.0142 138.5 18.8 7.31  73
2026 04 17 13  13 43 15.454   +30 55 39.01  .01358 1.0141 138.6 18.7 8.26  70
2026 04 17 14  13 44 52.780   +30 50 40.28  .01332 1.0139 138.7 18.7 8.97  66
2026 04 17 15  13 46 33.778   +30 45 24.72  .01306 1.0137 138.7 18.7 9.45  62
2026 04 17 16  13 48 18.648   +30 39 51.07  .01280 1.0135 138.8 18.6 9.72  56
2026 04 17 17  13 50 07.605   +30 33 57.97  .01254 1.0134 138.9 18.6 9.86  48
2026 04 17 18  13 52 00.876   +30 27 43.90  .01229 1.0132 138.9 18.5 10.0  37
2026 04 17 19  13 53 58.707   +30 21 07.22  .01203 1.0130 139.0 18.5 10.4  24
2026 04 17 20  13 56 01.360   +30 14 06.12  .01178 1.0129 139.1 18.4 11.4   9
2026 04 17 21  13 58 09.118   +30 06 38.62  .01152 1.0127 139.1 18.4 13.4 175
2026 04 17 22  14 00 22.281   +29 58 42.54  .01127 1.0125 139.2 18.3 16.5 162
2026 04 17 23  14 02 41.173   +29 50 15.47  .01102 1.0123 139.3 18.3 20.9 152
2026 04 18 00  14 05 06.143   +29 41 14.77  .01077 1.0122 139.3 18.2 26.6 144
2026 04 18 01  14 07 37.562   +29 31 37.50  .01052 1.0120 139.4 18.2 33.7 138
2026 04 18 02  14 10 15.834   +29 21 20.45  .01027 1.0118 139.5 18.1 42.3 133
2026 04 18 03  14 13 01.387   +29 10 20.02  .01002 1.0116 139.5 18.1 52.6 130
2026 04 18 04  14 15 54.686   +28 58 32.26  .00977 1.0115 139.6 18.0 64.6 127
2026 04 18 05  14 18 56.228   +28 45 52.78  .00953 1.0113 139.6 17.9 78.6 125
2026 04 18 06  14 22 06.547   +28 32 16.71  .00928 1.0111 139.7 17.9 94.8 124
2026 04 18 07  14 25 26.218   +28 17 38.61  .00904 1.0110 139.7 17.8  114 122
2026 04 18 08  14 28 55.858   +28 01 52.49  .00880 1.0108 139.7 17.8  135 121
2026 04 18 09  14 32 36.127   +27 44 51.63  .00856 1.0106 139.7 17.7  160 121
2026 04 18 10  14 36 27.733   +27 26 28.60  .00832 1.0105 139.7 17.6  188 120
2026 04 18 11  14 40 31.434   +27 06 35.11  .00809 1.0103 139.7 17.6  220 120
2026 04 18 12  14 44 48.037   +26 45 01.93  .00785 1.0101 139.7 17.5  257 119
2026 04 18 13  14 49 18.403   +26 21 38.83  .00762 1.0099 139.6 17.5  299 119
2026 04 18 14  14 54 03.443   +25 56 14.44  .00740 1.0098 139.6 17.4  346 119
2026 04 18 15  14 59 04.123   +25 28 36.15  .00717 1.0096 139.4 17.3  400 119
2026 04 18 16  15 04 21.454   +24 58 30.05  .00695 1.0094 139.3 17.3  461 119
2026 04 18 17  15 09 56.494   +24 25 40.78  .00674 1.0093 139.1 17.2  530 119
2026 04 18 18  15 15 50.340   +23 49 51.54  976083 1.0091 138.8 17.1  609 119
2026 04 18 19  15 22 04.112   +23 10 44.01  944987 1.0089 138.5 17.1  697 120
2026 04 18 20  15 28 38.947   +22 27 58.38  914643 1.0088 138.2 17.0  797 120
2026 04 18 21  15 35 35.972   +21 41 13.48  885129 1.0086 137.7 17.0  909 120
2026 04 18 22  15 42 56.283   +20 50 06.96  856531 1.0084 137.2 16.9 1035 121
2026 04 18 23  15 50 40.914   +19 54 15.71  828943 1.0083 136.5 16.8 1175 121
2026 04 19 00  15 58 50.791   +18 53 16.34  802470 1.0081 135.7 16.8 1331 121
2026 04 19 01  16 07 26.692   +17 46 46.05  777226 1.0079 134.8 16.8 1504 122
2026 04 19 02  16 16 29.188   +16 34 23.64  753335 1.0078 133.8 16.7 1694 122
2026 04 19 03  16 25 58.580   +15 15 50.97  730930 1.0076 132.6 16.7 1901 123
2026 04 19 04  16 35 54.837   +13 50 54.62  710151 1.0074 131.3 16.7 2125 123
2026 04 19 05  16 46 17.522   +12 19 27.90  691145 1.0073 129.7 16.6 2363 124
2026 04 19 06  16 57 05.732   +10 41 32.99  674063 1.0071 128.0 16.6 2614 124
2026 04 19 07  17 08 18.038   +08 57 23.06  659054 1.0069 126.2 16.6 2873 125
2026 04 19 08  17 19 52.449   +07 07 24.12  646263 1.0068 124.1 16.7 3137 125
2026 04 19 09  17 31 46.398   +05 12 16.16  635823 1.0066 121.9 16.7 3398 125
2026 04 19 10  17 43 56.754   +03 12 53.39  627853 1.0064 119.6 16.7 3651 125
2026 04 19 11  17 56 19.879   +01 10 23.08  622447 1.0063 117.1 16.8 3889 125